Flag for China Weather past 2 weeks in Hohhot, Inner Mongolia, China

Now
73 °F

Scattered clouds.


Feels Like: 74 °F
Forecast: 51 / 71 °F
Wind: 6 mph from Southwest

Location: Hohhot Airport

Current Time: Jun 3, 2015 at 2:04:19 PM

Latest Report: Jun 3, 2015 at 1:00 PM


Visibility: N/A

Pressure: 30.04 "Hg

Humidity: 13%

Dew point: 19 °F

Location of HohhotLocation

Historic Weather in Hohhot — Graph

°F

Hohhot temperature yesterday

Maximum temperature yesterday: 77 °F (at 3:00 PM)
Minimum temperature yesterday: 54 °F (at 5:00 AM)
Average temperature yesterday: 66 °F

Past Weeks' High & Low Weather Summary

 TemperatureHumidityPressure
High90 °F (May 25, 3:00 PM)63% (May 25, 5:00 AM)30.21 "Hg (May 25, 5:00 AM)
Low41 °F (May 20, 4:00 AM)9% (May 26, 4:00 PM)29.59 "Hg (May 27, 5:00 PM)
Average69 °F25%29.87 "Hg
* Reported May 19 1:00 PM — Jun 3 1:00 PM, Hohhot, Weather by CustomWeather, © 2015

Note: Actual official high and low records may vary slightly from our data, if they occured in-between our weather recording intervals... More about our weather records

Advertising

Hohhot weather history for previous 24 hours

 ConditionsComfort  
Time TempWeatherWind HumidityBarometerVisibility
1:00 PM
Wed, Jun 3
73 °FScattered clouds.6 mph13%30.04 "HgN/A
12:00 PM73 °FPassing clouds.1 mph13%30.04 "HgN/A
11:00 AM70 °FPassing clouds.1 mph15%30.07 "HgN/A
10:00 AM70 °FPassing clouds.6 mph15%30.09 "HgN/A
9:00 AM66 °FPassing clouds.6 mph18%30.09 "HgN/A
8:00 AM63 °FPassing clouds.3 mph22%30.09 "HgN/A
7:00 AM63 °FSunny.3 mph22%30.09 "Hg10 mi
6:00 AM57 °FSunny.3 mph23%30.09 "Hg10 mi
5:00 AM55 °FClear.3 mph23%30.09 "Hg10 mi
4:00 AM54 °FClear.1 mph24%30.09 "Hg10 mi
3:00 AM55 °FClear.3 mph21%30.09 "Hg10 mi
2:00 AM55 °FClear.3 mph19%30.09 "Hg10 mi
1:00 AM55 °FClear.3 mph19%30.09 "Hg10 mi
12:00 AM59 °FClear.6 mph16%30.07 "Hg10 mi
11:00 PM
Tue, Jun 2
59 °FClear.3 mph17%30.07 "Hg10 mi
10:00 PM61 °FPassing clouds.6 mph16%30.07 "HgN/A
9:00 PM64 °FClear.8 mph14%30.04 "Hg10 mi
8:00 PM68 °FClear.6 mph11%30.01 "Hg10 mi
7:00 PM73 °FSunny.8 mph10%29.98 "Hg10 mi
6:00 PM75 °FSunny.8 mph10%29.95 "Hg10 mi
5:00 PM77 °FPassing clouds.8 mph9%29.95 "HgN/A
4:00 PM77 °FSunny.3 mph10%29.95 "Hg10 mi
3:00 PM77 °FPassing clouds.6 mph11%29.98 "HgN/A
2:00 PM75 °FSunny.10 mph12%30.01 "Hg10 mi
Weather by CustomWeather, © 2015

See weather overviewHow to use our weather pages